Location: Crescent
(42.8242°N, 73.7329°W)
Time: 08:18:20
(UTC+00:00)

Vanguard 1 - Pass Details

Date: 25 February 2026
Orbit: 653 x 3818 km, 34.2° (Epoch: 12 March)

Event Time Altitude Azimuth Distance (km) Brightness Sun altitude
Rises 19:35:17 0° 248° (WSW) 3,964 14.1 28.4°
Reaches altitude 10° 19:37:33 10° 244° (WSW) 3,267 14.1 28.1°
Maximum altitude 19:45:45 55° 169° (SSE) 2,184 12.6 27.1°
Drops below altitude 10° 20:00:53 10° 98° (E) 5,795 13.7 25.0°
Sets 20:06:28 0° 95° (E) 7,242 14.1 24.3°
